Simultaneous Nadir Overpasses (SNOs) Predictions

Prediction of SNOs between GOES-15 and FY3D Satellite Orbit:

Table of predicted SNOs for the next 14.0 days since TLE Epoch: 11/16/2024
Index Date Time (GOES-15) GOES-15 Lat,Lon FY3D Lat,Lon Distance(km) Time Diff (sec)
1 11/16/2024 22:55:21 -0.03, 61.56 0.84, 57.78 430.88 80
2 11/17/2024 22:34:00 -0.01, 61.58 -0.20, 62.32 84.22 80
3 11/20/2024 10:37:16 0.02, 61.73 -0.03, 61.59 17.07 80
4 11/21/2024 10:21:15 0.01, 61.75 1.02, 66.12 498.80 80
5 11/22/2024 22:43:07 -0.03, 61.67 0.15, 60.87 92.00 80
6 11/23/2024 22:21:45 -0.02, 61.70 -0.85, 65.41 423.07 80
7 11/25/2024 10:43:44 0.04, 61.84 -0.35, 60.14 194.48 80
8 11/26/2024 10:27:42 0.03, 61.86 0.65, 64.68 321.30 80
9 11/27/2024 22:49:34 -0.05, 61.77 0.49, 59.42 268.11 80
10 11/28/2024 22:28:11 -0.04, 61.80 -0.52, 63.97 246.69 80
